{"data":{"norad_id":63718,"intl_designator":"2025-087X","name":"STARLINK-33641","alt_names":[],"object_type":"PAYLOAD","status":"ACTIVE","operator":null,"country":"US","launch_date":"2025-04-28","launch_site_code":"AFWTR","launch_vehicle":null,"mission":null,"orbit_class":"UNKNOWN","rcs_meters":null,"size_class":null,"mass_kg":null,"dimensions":null,"purposes":["comms"],"wikipedia_slug":null,"has_3d_model":false,"image_url":null,"decayed_at":null,"tle_current":{"epoch":"2026-09-20T14:35:59.341344Z","epoch_age_seconds":143284,"freshness":"FRESH","line1":"1 63718U 25087X   26263.60832571  .00011589  00000+0  38438-3 0  9990","line2":"2 63718  53.1596  32.6758 0000657  98.4375 261.6701 15.31720089 79062","mean_motion":15.31720089,"eccentricity":6.57e-5,"inclination_deg":53.1596,"raan_deg":32.6758,"arg_perigee_deg":98.4375,"mean_anomaly_deg":261.6701,"bstar":0.00038438,"rev_number":7906,"period_min":94.011954947991,"perigee_km":470.23014433226,"apogee_km":471.13007890073,"semimajor_km":6848.8171116165,"source":"CELESTRAK","updated_at":"2026-09-21T09:00:35.091079Z"}}}